Location: Amsterdam
(30.7274°N, 84.4357°W)
Time: 09:31:45
(UTC+00:00)

MOZHAYETS 4 - Pass Details

Date: 21 March 2026
Orbit: 642 x 659 km, 98.3° (Epoch: 19 April)

Event Time Altitude Azimuth Distance (km) Brightness Sun altitude
Rises 11:02:47 0° 177° (S) 2,973 11.0 -8.9°
Reaches altitude 10° 11:05:02 10° 182° (S) 2,064 10.2 -8.4°
Maximum altitude 11:09:26 54° 259° (W) 801 7.8 -7.4°
Drops below altitude 10° 11:13:52 10° 337° (NNW) 2,072 10.1 -6.5°
Sets 11:16:08 0° 342° (NNW) 2,985 10.9 -6.0°
